Location: Cornospital
(48.0620°N, 3.3837°W)
Time: 15:20:40
(UTC+00:00)

Cosmos 1025 Rocket - Pass Details

Date: 17 June 2021
Orbit: 593 x 619 km, 82.5° (Epoch: 31 July)

Event Time Altitude Azimuth Distance (km) Brightness Sun altitude
Exits shadow 21:22:39 - 163° (SSE) 2,020 5.1 -8.8°
Reaches altitude 10° 21:22:46 10° 162° (SSE) 1,977 5.1 -8.8°
Maximum altitude 21:26:53 41° 92° (E) 899 3.6 -9.3°
Drops below altitude 10° 21:31:00 10° 23° (NNE) 1,982 6.1 -9.7°
Sets 21:33:18 0° 16° (NNE) 2,887 7.1 -9.9°
